Time,TemperatureF,DewpointF,PressureIn,WindDirection,WindDirectionDegrees,WindSpeedMPH,WindSpeedGustMPH,Humidity,HourlyPrecipIn,Conditions,Clouds,dailyrainin,SoftwareType,DateUTC
2013-08-27 00:00:00,66.1,63.7,29.97,East,93,0.0,0.0,92,0.00,,---,0.00,VWS V14.01,2013-08-27 04:00:00,
2013-08-27 00:10:00,66.0,63.9,29.97,East,93,0.0,0.0,93,0.00,,---,0.00,VWS V14.01,2013-08-27 04:10:00,
2013-08-27 00:20:00,65.8,64.3,29.97,East,93,0.0,0.0,95,0.00,,---,0.00,VWS V14.01,2013-08-27 04:20:00,
2013-08-27 00:30:00,65.6,63.5,29.96,East,93,0.0,0.0,93,0.00,,---,0.00,VWS V14.01,2013-08-27 04:30:00,
2013-08-27 00:40:00,65.6,62.9,29.96,East,93,0.0,0.0,91,0.00,,---,0.00,VWS V14.01,2013-08-27 04:40:00,
2013-08-27 00:50:00,65.6,63.2,29.96,East,93,0.0,0.0,92,0.00,,---,0.00,VWS V14.01,2013-08-27 04:50:00,
2013-08-27 01:00:00,65.6,62.9,29.96,East,93,0.0,0.0,91,0.00,,---,0.00,VWS V14.01,2013-08-27 05:00:00,
2013-08-27 01:10:00,65.6,63.2,29.96,East,93,0.0,0.0,92,0.00,,---,0.00,VWS V14.01,2013-08-27 05:10:00,
2013-08-27 01:20:00,65.6,63.5,29.95,East,93,0.0,0.0,93,0.00,,---,0.00,VWS V14.01,2013-08-27 05:20:00,
2013-08-27 01:30:00,65.5,63.4,29.95,East,93,0.0,0.0,93,0.00,,---,0.00,VWS V14.01,2013-08-27 05:30:00,
2013-08-27 01:40:00,65.3,62.9,29.95,East,93,0.0,0.0,92,0.00,,---,0.00,VWS V14.01,2013-08-27 05:40:00,
2013-08-27 01:50:00,65.3,63.2,29.94,East,93,0.0,0.0,93,0.00,,---,0.00,VWS V14.01,2013-08-27 05:50:00,
2013-08-27 02:00:00,65.2,63.1,29.94,East,93,0.0,0.0,93,0.00,,---,0.00,VWS V14.01,2013-08-27 06:00:00,
2013-08-27 02:10:00,65.0,63.2,29.94,East,93,0.0,0.0,94,0.00,,---,0.00,VWS V14.01,2013-08-27 06:10:00,
2013-08-27 02:20:00,64.8,63.3,29.93,East,93,0.0,0.0,95,0.00,,---,0.00,VWS V14.01,2013-08-27 06:20:00,
2013-08-27 02:30:00,64.7,63.5,29.93,East,93,0.0,0.0,96,0.00,,---,0.00,VWS V14.01,2013-08-27 06:30:00,
2013-08-27 02:40:00,64.7,63.5,29.93,East,93,0.0,0.0,96,0.00,,---,0.00,VWS V14.01,2013-08-27 06:40:00,
2013-08-27 02:50:00,64.5,63.3,29.93,East,93,0.0,0.0,96,0.00,,---,0.00,VWS V14.01,2013-08-27 06:50:00,
2013-08-27 03:00:00,64.5,63.6,29.93,East,93,0.0,0.0,97,0.00,,---,0.00,VWS V14.01,2013-08-27 07:00:00,
2013-08-27 03:10:00,64.2,63.6,29.93,East,93,0.0,0.0,98,0.00,,---,0.00,VWS V14.01,2013-08-27 07:10:00,
2013-08-27 03:20:00,64.0,63.4,29.93,East,93,0.0,0.0,98,0.00,,---,0.00,VWS V14.01,2013-08-27 07:20:00,
2013-08-27 03:30:00,63.9,63.3,29.93,East,93,0.0,0.0,98,0.00,,---,0.00,VWS V14.01,2013-08-27 07:30:00,
2013-08-27 03:40:00,63.9,63.9,29.93,East,93,0.0,0.0,100,0.00,,---,0.00,VWS V14.01,2013-08-27 07:40:00,
2013-08-27 03:50:00,63.7,63.4,29.92,East,93,0.0,0.0,99,0.00,,---,0.00,VWS V14.01,2013-08-27 07:50:00,
2013-08-27 04:00:00,63.7,63.4,29.91,East,93,0.0,0.0,99,0.00,,---,0.00,VWS V14.01,2013-08-27 08:00:00,
2013-08-27 04:10:00,63.7,63.1,29.91,East,93,0.0,0.0,98,0.00,,---,0.00,VWS V14.01,2013-08-27 08:10:00,
2013-08-27 04:20:00,63.9,63.0,29.91,East,88,0.0,0.0,97,0.00,,---,0.00,VWS V14.01,2013-08-27 08:20:00,
2013-08-27 04:30:00,63.9,62.7,29.91,East,88,0.0,0.0,96,0.00,,---,0.00,VWS V14.01,2013-08-27 08:30:00,
2013-08-27 04:40:00,64.0,62.5,29.91,East,85,0.0,0.0,95,0.00,,---,0.00,VWS V14.01,2013-08-27 08:40:00,
2013-08-27 04:50:00,64.0,62.5,29.91,East,85,0.0,0.0,95,0.00,,---,0.00,VWS V14.01,2013-08-27 08:50:00,
2013-08-27 05:00:00,64.0,61.9,29.91,East,85,0.0,0.0,93,0.00,,---,0.00,VWS V14.01,2013-08-27 09:00:00,
2013-08-27 05:10:00,64.2,62.1,29.91,East,83,0.0,0.0,93,0.00,,---,0.00,VWS V14.01,2013-08-27 09:10:00,
2013-08-27 05:20:00,64.3,62.5,29.91,East,82,0.0,0.0,94,0.00,,---,0.00,VWS V14.01,2013-08-27 09:20:00,
2013-08-27 05:30:00,64.5,62.7,29.91,East,82,0.0,0.0,94,0.00,,---,0.00,VWS V14.01,2013-08-27 09:30:00,
2013-08-27 05:40:00,64.3,62.5,29.91,East,82,0.0,0.0,94,0.00,,---,0.00,VWS V14.01,2013-08-27 09:40:00,
2013-08-27 05:50:00,64.0,62.8,29.91,East,82,0.0,0.0,96,0.00,,---,0.00,VWS V14.01,2013-08-27 09:50:00,
2013-08-27 06:00:00,63.5,62.9,29.90,East,82,0.0,0.0,98,0.00,,---,0.00,VWS V14.01,2013-08-27 10:00:00,
2013-08-27 06:10:00,63.4,62.8,29.90,East,82,0.0,0.0,98,0.00,,---,0.00,VWS V14.01,2013-08-27 10:10:00,
2013-08-27 06:20:00,63.1,62.8,29.91,East,82,0.0,0.0,99,0.00,,---,0.00,VWS V14.01,2013-08-27 10:20:00,
2013-08-27 06:30:00,63.1,63.1,29.90,East,82,0.0,0.0,100,0.00,,---,0.00,VWS V14.01,2013-08-27 10:30:00,
2013-08-27 06:40:00,62.9,62.9,29.90,East,82,0.0,0.0,100,0.00,,---,0.00,VWS V14.01,2013-08-27 10:40:00,
2013-08-27 06:50:00,62.9,62.9,29.89,East,82,0.0,0.0,100,0.00,,---,0.00,VWS V14.01,2013-08-27 10:50:00,
2013-08-27 07:00:00,63.2,63.2,29.90,East,82,0.0,0.0,100,0.00,,---,0.00,VWS V14.01,2013-08-27 11:00:00,
2013-08-27 07:10:00,63.5,63.5,29.90,East,82,0.0,0.0,100,0.00,,---,0.00,VWS V14.01,2013-08-27 11:10:00,
2013-08-27 07:20:00,63.9,63.9,29.90,NE,56,0.0,0.0,100,0.00,,---,0.00,VWS V14.01,2013-08-27 11:20:00,
2013-08-27 07:30:00,64.7,64.4,29.91,NW,313,0.0,0.0,99,0.00,,---,0.00,VWS V14.01,2013-08-27 11:30:00,
2013-08-27 07:40:00,65.0,64.7,29.91,NW,313,0.0,0.0,99,0.00,,---,0.00,VWS V14.01,2013-08-27 11:40:00,
2013-08-27 07:50:00,65.5,65.2,29.91,NW,313,0.0,0.0,99,0.00,,---,0.00,VWS V14.01,2013-08-27 11:50:00,
2013-08-27 08:00:00,66.0,65.4,29.90,West,278,0.0,0.0,98,0.00,,---,0.00,VWS V14.01,2013-08-27 12:00:00,
2013-08-27 08:10:00,66.8,66.2,29.90,West,278,0.0,0.0,98,0.00,,---,0.00,VWS V14.01,2013-08-27 12:10:00,
2013-08-27 08:20:00,67.3,66.4,29.90,WNW,287,0.0,1.0,97,0.00,,---,0.00,VWS V14.01,2013-08-27 12:20:00,
2013-08-27 08:30:00,67.8,66.9,29.90,West,278,0.0,0.0,97,0.00,,---,0.00,VWS V14.01,2013-08-27 12:30:00,
2013-08-27 08:40:00,68.4,67.2,29.90,WNW,282,0.0,1.0,96,0.00,,---,0.00,VWS V14.01,2013-08-27 12:40:00,
2013-08-27 08:50:00,69.3,67.8,29.90,NW,315,0.0,3.0,95,0.00,,---,0.00,VWS V14.01,2013-08-27 12:50:00,
2013-08-27 09:00:00,70.6,68.8,29.89,WSW,258,0.0,0.0,94,0.00,,---,0.00,VWS V14.01,2013-08-27 13:00:00,
2013-08-27 09:10:00,71.6,68.8,29.89,West,260,0.0,0.0,91,0.00,,---,0.00,VWS V14.01,2013-08-27 13:10:00,
2013-08-27 09:20:00,72.3,69.5,29.90,West,260,0.0,0.0,91,0.00,,---,0.00,VWS V14.01,2013-08-27 13:20:00,
2013-08-27 09:30:00,73.3,69.9,29.89,WNW,301,0.0,2.0,89,0.00,,---,0.00,VWS V14.01,2013-08-27 13:30:00,
2013-08-27 09:40:00,74.2,71.1,29.89,WNW,302,0.0,2.0,90,0.00,,---,0.00,VWS V14.01,2013-08-27 13:40:00,
2013-08-27 09:50:00,75.3,71.5,29.89,WNW,302,0.0,0.0,88,0.00,,---,0.00,VWS V14.01,2013-08-27 13:50:00,
2013-08-27 10:00:00,76.5,71.7,29.88,West,272,0.0,1.0,85,0.00,,---,0.00,VWS V14.01,2013-08-27 14:00:00,
2013-08-27 10:10:00,77.4,72.2,29.88,West,281,0.0,3.0,84,0.00,,---,0.00,VWS V14.01,2013-08-27 14:10:00,
2013-08-27 10:20:00,78.5,72.6,29.88,West,271,0.0,1.0,82,0.00,,---,0.00,VWS V14.01,2013-08-27 14:20:00,
2013-08-27 10:30:00,79.6,74.0,29.88,West,281,0.0,0.0,83,0.00,,---,0.00,VWS V14.01,2013-08-27 14:30:00,
2013-08-27 10:40:00,80.1,73.4,29.88,West,281,0.0,0.0,80,0.00,,---,0.00,VWS V14.01,2013-08-27 14:40:00,
2013-08-27 10:50:00,80.9,74.5,29.88,West,281,0.0,0.0,81,0.00,,---,0.00,VWS V14.01,2013-08-27 14:50:00,
2013-08-27 11:00:00,81.4,75.0,29.89,West,281,0.0,0.0,81,0.00,,---,0.00,VWS V14.01,2013-08-27 15:00:00,
2013-08-27 11:10:00,81.4,74.6,29.89,West,281,0.0,0.0,80,0.00,,---,0.00,VWS V14.01,2013-08-27 15:10:00,
2013-08-27 11:20:00,82.4,75.6,29.88,West,281,0.0,0.0,80,0.00,,---,0.00,VWS V14.01,2013-08-27 15:20:00,
2013-08-27 11:30:00,83.4,75.8,29.88,WSW,248,0.0,1.0,78,0.00,,---,0.00,VWS V14.01,2013-08-27 15:30:00,
2013-08-27 11:40:00,84.0,76.4,29.88,West,263,0.0,0.0,78,0.00,,---,0.00,VWS V14.01,2013-08-27 15:40:00,
2013-08-27 11:50:00,84.7,76.7,29.87,West,268,0.0,1.0,77,0.00,,---,0.00,VWS V14.01,2013-08-27 15:50:00,
2013-08-27 12:00:00,85.1,75.5,29.86,West,267,0.0,1.0,73,0.00,,---,0.00,VWS V14.01,2013-08-27 16:00:00,
2013-08-27 12:10:00,85.9,76.2,29.86,West,267,0.0,0.0,73,0.00,,---,0.00,VWS V14.01,2013-08-27 16:10:00,
2013-08-27 12:20:00,86.3,76.6,29.86,NW,320,0.0,0.0,73,0.00,,---,0.00,VWS V14.01,2013-08-27 16:20:00,
2013-08-27 12:30:00,86.7,76.6,29.85,West,280,0.0,0.0,72,0.00,,---,0.00,VWS V14.01,2013-08-27 16:30:00,
2013-08-27 12:40:00,87.0,77.3,29.85,West,281,0.0,0.0,73,0.00,,---,0.00,VWS V14.01,2013-08-27 16:40:00,
2013-08-27 12:50:00,86.5,76.4,29.86,West,281,0.0,0.0,72,0.00,,---,0.00,VWS V14.01,2013-08-27 16:50:00,
2013-08-27 13:00:00,86.5,77.6,29.86,West,281,0.0,0.0,75,0.00,,---,0.00,VWS V14.01,2013-08-27 17:00:00,
2013-08-27 13:10:00,86.7,75.3,29.86,West,281,0.0,0.0,69,0.00,,---,0.00,VWS V14.01,2013-08-27 17:10:00,
2013-08-27 13:20:00,87.4,76.0,29.86,West,281,0.0,0.0,69,0.00,,---,0.00,VWS V14.01,2013-08-27 17:20:00,
2013-08-27 13:30:00,87.4,76.0,29.85,West,281,0.0,1.0,69,0.00,,---,0.00,VWS V14.01,2013-08-27 17:30:00,
2013-08-27 13:40:00,87.8,75.9,29.85,West,281,0.0,0.0,68,0.00,,---,0.00,VWS V14.01,2013-08-27 17:40:00,
2013-08-27 13:50:00,88.2,76.8,29.84,West,281,0.0,0.0,69,0.00,,---,0.00,VWS V14.01,2013-08-27 17:50:00,
2013-08-27 14:00:00,87.8,75.9,29.84,West,281,0.0,0.0,68,0.00,,---,0.00,VWS V14.01,2013-08-27 18:00:00,
2013-08-27 14:10:00,88.4,76.9,29.84,West,281,0.0,0.0,69,0.00,,---,0.00,VWS V14.01,2013-08-27 18:10:00,
2013-08-27 14:20:00,89.0,77.5,29.84,West,281,0.0,0.0,69,0.00,,---,0.00,VWS V14.01,2013-08-27 18:20:00,
2013-08-27 14:30:00,89.3,77.4,29.83,West,281,0.0,0.0,68,0.00,,---,0.00,VWS V14.01,2013-08-27 18:30:00,
2013-08-27 14:40:00,89.5,75.7,29.83,West,271,0.0,0.0,64,0.00,,---,0.00,VWS V14.01,2013-08-27 18:40:00,
2013-08-27 14:50:00,89.9,77.5,29.83,West,271,0.0,0.0,67,0.00,,---,0.00,VWS V14.01,2013-08-27 18:50:00,
2013-08-27 15:00:00,90.3,76.9,29.83,West,271,0.0,0.0,65,0.00,,---,0.00,VWS V14.01,2013-08-27 19:00:00,
2013-08-27 15:10:00,89.5,76.7,29.83,WNW,294,0.0,2.0,66,0.00,,---,0.00,VWS V14.01,2013-08-27 19:10:00,
2013-08-27 15:20:00,89.5,78.4,29.82,WNW,294,0.0,0.0,70,0.00,,---,0.00,VWS V14.01,2013-08-27 19:20:00,
2013-08-27 15:30:00,89.7,77.3,29.82,WNW,296,0.0,0.0,67,0.00,,---,0.00,VWS V14.01,2013-08-27 19:30:00,
2013-08-27 15:40:00,89.9,75.6,29.82,WNW,296,0.0,0.0,63,0.00,,---,0.00,VWS V14.01,2013-08-27 19:40:00,
2013-08-27 15:50:00,89.7,77.3,29.81,WNW,296,0.0,0.0,67,0.00,,---,0.00,VWS V14.01,2013-08-27 19:50:00,
2013-08-27 16:00:00,89.5,76.2,29.81,WSW,243,0.0,1.0,65,0.00,,---,0.00,VWS V14.01,2013-08-27 20:00:00,
2013-08-27 16:10:00,89.7,76.8,29.81,WSW,247,0.0,1.0,66,0.00,,---,0.00,VWS V14.01,2013-08-27 20:10:00,
2013-08-27 16:20:00,89.3,78.2,29.81,WSW,247,0.0,0.0,70,0.00,,---,0.00,VWS V14.01,2013-08-27 20:20:00,
2013-08-27 16:30:00,89.0,77.5,29.81,WSW,247,0.0,0.0,69,0.00,,---,0.00,VWS V14.01,2013-08-27 20:30:00,
2013-08-27 16:40:00,89.3,78.2,29.81,WSW,247,0.0,0.0,70,0.00,,---,0.00,VWS V14.01,2013-08-27 20:40:00,
2013-08-27 16:50:00,88.8,76.4,29.81,WSW,247,0.0,0.0,67,0.00,,---,0.00,VWS V14.01,2013-08-27 20:50:00,
2013-08-27 17:00:00,88.6,77.6,29.81,WSW,247,0.0,0.0,70,0.00,,---,0.00,VWS V14.01,2013-08-27 21:00:00,
2013-08-27 17:10:00,88.0,77.0,29.81,WSW,247,0.0,0.0,70,0.00,,---,0.00,VWS V14.01,2013-08-27 21:10:00,
2013-08-27 17:20:00,87.4,77.3,29.81,WSW,247,0.0,0.0,72,0.00,,---,0.00,VWS V14.01,2013-08-27 21:20:00,
2013-08-27 17:30:00,86.5,76.8,29.81,WSW,247,0.0,0.0,73,0.00,,---,0.00,VWS V14.01,2013-08-27 21:30:00,
2013-08-27 17:40:00,85.7,76.9,29.81,WSW,247,0.0,0.0,75,0.00,,---,0.00,VWS V14.01,2013-08-27 21:40:00,
2013-08-27 17:50:00,85.5,76.7,29.81,WSW,247,0.0,0.0,75,0.00,,---,0.00,VWS V14.01,2013-08-27 21:50:00,
2013-08-27 18:00:00,85.1,76.7,29.81,WSW,247,0.0,0.0,76,0.00,,---,0.00,VWS V14.01,2013-08-27 22:00:00,
2013-08-27 18:10:00,84.9,76.5,29.81,WSW,247,0.0,0.0,76,0.00,,---,0.00,VWS V14.01,2013-08-27 22:10:00,
2013-08-27 18:20:00,84.9,76.5,29.81,WSW,247,0.0,0.0,76,0.00,,---,0.00,VWS V14.01,2013-08-27 22:20:00,
2013-08-27 18:30:00,84.7,76.7,29.81,WSW,247,0.0,0.0,77,0.00,,---,0.00,VWS V14.01,2013-08-27 22:30:00,
2013-08-27 18:40:00,84.5,76.5,29.81,WSW,247,0.0,0.0,77,0.00,,---,0.00,VWS V14.01,2013-08-27 22:40:00,
2013-08-27 18:50:00,84.1,76.5,29.81,WSW,247,0.0,0.0,78,0.00,,---,0.00,VWS V14.01,2013-08-27 22:50:00,
2013-08-27 19:00:00,83.8,76.2,29.81,WSW,247,0.0,0.0,78,0.00,,---,0.00,VWS V14.01,2013-08-27 23:00:00,
2013-08-27 19:10:00,83.4,75.4,29.81,WSW,247,0.0,0.0,77,0.00,,---,0.00,VWS V14.01,2013-08-27 23:10:00,
2013-08-27 19:20:00,83.0,75.1,29.81,WSW,247,0.0,0.0,77,0.00,,---,0.00,VWS V14.01,2013-08-27 23:20:00,
2013-08-27 19:30:00,82.4,74.5,29.81,WSW,247,0.0,0.0,77,0.00,,---,0.00,VWS V14.01,2013-08-27 23:30:00,
2013-08-27 19:40:00,81.8,73.5,29.81,WSW,247,0.0,0.0,76,0.00,,---,0.00,VWS V14.01,2013-08-27 23:40:00,
2013-08-27 19:50:00,81.2,74.4,29.81,WSW,247,0.0,0.0,80,0.00,,---,0.00,VWS V14.01,2013-08-27 23:50:00,
2013-08-27 20:00:00,80.9,74.2,29.81,WSW,247,0.0,0.0,80,0.00,,---,0.00,VWS V14.01,2013-08-28 00:00:00,
2013-08-27 20:10:00,80.1,74.1,29.81,WSW,247,0.0,0.0,82,0.00,,---,0.00,VWS V14.01,2013-08-28 00:10:00,
2013-08-27 20:20:00,79.9,73.9,29.81,WSW,247,0.0,0.0,82,0.00,,---,0.00,VWS V14.01,2013-08-28 00:20:00,
2013-08-27 20:30:00,79.8,73.8,29.81,WSW,247,0.0,0.0,82,0.00,,---,0.00,VWS V14.01,2013-08-28 00:30:00,
2013-08-27 20:40:00,79.6,74.3,29.81,WSW,247,0.0,0.0,84,0.00,,---,0.00,VWS V14.01,2013-08-28 00:40:00,
2013-08-27 20:50:00,79.2,74.7,29.81,WSW,247,0.0,0.0,86,0.00,,---,0.00,VWS V14.01,2013-08-28 00:50:00,
2013-08-27 21:00:00,78.6,74.8,29.81,WSW,247,0.0,0.0,88,0.00,,---,0.00,VWS V14.01,2013-08-28 01:00:00,
2013-08-27 21:10:00,78.6,74.4,29.81,WSW,247,0.0,0.0,87,0.00,,---,0.00,VWS V14.01,2013-08-28 01:10:00,
2013-08-27 21:20:00,78.6,74.4,29.81,WSW,247,0.0,0.0,87,0.00,,---,0.00,VWS V14.01,2013-08-28 01:20:00,
2013-08-27 21:30:00,78.1,74.6,29.81,WSW,247,0.0,0.0,89,0.00,,---,0.00,VWS V14.01,2013-08-28 01:30:00,
2013-08-27 21:40:00,77.9,74.7,29.81,WSW,247,0.0,0.0,90,0.00,,---,0.00,VWS V14.01,2013-08-28 01:40:00,
2013-08-27 21:50:00,77.6,74.8,29.81,WSW,247,0.0,0.0,91,0.00,,---,0.00,VWS V14.01,2013-08-28 01:50:00,
2013-08-27 22:00:00,77.4,75.2,29.81,WSW,247,0.0,0.0,93,0.00,,---,0.00,VWS V14.01,2013-08-28 02:00:00,
2013-08-27 22:10:00,77.4,75.5,29.81,WSW,247,0.0,0.0,94,0.00,,---,0.00,VWS V14.01,2013-08-28 02:10:00,
2013-08-27 22:20:00,77.2,75.7,29.81,WSW,247,0.0,0.0,95,0.00,,---,0.00,VWS V14.01,2013-08-28 02:20:00,
2013-08-27 22:30:00,77.2,75.7,29.82,WSW,247,0.0,0.0,95,0.00,,---,0.00,VWS V14.01,2013-08-28 02:30:00,
2013-08-27 22:40:00,76.8,75.9,29.82,WSW,247,0.0,0.0,97,0.00,,---,0.00,VWS V14.01,2013-08-28 02:40:00,
2013-08-27 22:50:00,76.7,75.8,29.82,WSW,247,0.0,0.0,97,0.00,,---,0.00,VWS V14.01,2013-08-28 02:50:00,
2013-08-27 23:00:00,76.7,75.8,29.83,WSW,247,0.0,0.0,97,0.00,,---,0.00,VWS V14.01,2013-08-28 03:00:00,
2013-08-27 23:10:00,76.5,75.9,29.83,WSW,247,0.0,0.0,98,0.00,,---,0.00,VWS V14.01,2013-08-28 03:10:00,
2013-08-27 23:20:00,76.1,75.8,29.83,WSW,247,0.0,0.0,99,0.00,,---,0.00,VWS V14.01,2013-08-28 03:20:00,
2013-08-27 23:30:00,76.0,75.7,29.82,WSW,247,0.0,0.0,99,0.00,,---,0.00,VWS V14.01,2013-08-28 03:30:00,
2013-08-27 23:40:00,76.0,76.0,29.82,WSW,247,0.0,0.0,100,0.00,,---,0.00,VWS V14.01,2013-08-28 03:40:00,
2013-08-27 23:50:00,75.8,75.8,29.82,WSW,247,0.0,0.0,100,0.00,,---,0.00,VWS V14.01,2013-08-28 03:50:00,